Location: Bluff Heights
(33.7692°N, 118.1592°W)
Time: 22:52:51
(UTC+00:00)

Explorer 11/Cluster Stage 4 - All Passes

Search period start: 28 July 2021 00:00
Search period end: 07 August 2021 00:00
Orbit: 467 x 1257 km, 28.8° (Epoch: 28 July)

Date Brightness Start Highest point End Pass type
(mag) Time Alt. Az. Time Alt. Az. Time Alt. Az.
28 Jul - 00:51:07 10° SW 00:52:50 11° SSW 00:54:26 10° SSW daylight
28 Jul - 15:35:22 10° S 15:39:07 14° SSE 15:42:54 10° ESE daylight
28 Jul - 17:20:26 10° SW 17:27:39 34° SSE 17:34:30 10° E daylight
28 Jul - 19:08:41 10° WSW 19:16:35 55° S 19:23:31 10° E daylight
28 Jul - 20:58:03 10° W 21:05:32 57° S 21:11:43 10° ESE daylight
28 Jul - 22:47:57 10° W 22:53:59 33° SSW 22:58:57 10° SE daylight
29 Jul - 00:41:02 10° SW 00:41:35 10° SW 00:42:07 10° SSW daylight
29 Jul - 15:23:11 10° S 15:27:43 16° SSE 15:32:20 10° ESE daylight
29 Jul - 17:08:52 10° SW 17:16:16 38° SSE 17:23:26 10° E daylight
29 Jul - 18:57:15 10° WSW 19:05:16 57° S 19:12:25 10° E daylight
29 Jul - 20:46:39 10° W 20:54:17 56° S 21:00:40 10° ESE daylight
29 Jul - 22:36:38 10° W 22:42:43 32° SSW 22:47:49 10° SE daylight
30 Jul - 15:11:14 10° S 15:16:19 18° SSE 15:21:34 10° ESE daylight
30 Jul - 16:57:22 10° SW 17:04:52 41° SSE 17:12:17 10° E daylight
30 Jul - 18:45:51 10° WSW 18:53:57 60° S 19:01:18 10° E daylight
30 Jul - 20:35:16 10° W 20:42:59 55° S 20:49:35 10° ESE daylight
30 Jul - 22:25:20 10° W 22:31:27 29° SSW 22:36:38 10° SSE daylight
31 Jul - 14:59:28 10° SSW 15:04:54 21° SSE 15:10:37 10° ESE daylight
31 Jul - 16:45:56 10° SW 16:53:30 44° SSE 17:01:06 10° E daylight
31 Jul - 18:34:29 10° WSW 18:42:36 61° S 18:50:09 10° E daylight
31 Jul - 20:23:54 10° W 20:31:41 53° SSW 20:38:27 10° ESE daylight
31 Jul - 22:14:03 10° W 22:20:08 27° SSW 22:25:23 10° SSE daylight
01 Aug - 14:47:50 10° SSW 14:53:30 23° SSE 14:59:35 10° ESE daylight
01 Aug - 16:34:33 10° SW 16:42:07 47° SSE 16:49:52 10° E daylight
01 Aug - 18:23:08 10° WSW 18:31:15 62° S 18:38:58 10° E daylight
01 Aug - 20:12:31 10° W 20:20:22 51° SSW 20:27:16 10° ESE daylight
01 Aug - 22:02:49 10° W 22:08:48 25° SSW 22:14:03 10° SSE daylight
02 Aug - 14:36:17 10° SSW 14:42:07 26° SSE 14:48:27 10° E daylight
02 Aug - 16:23:13 10° WSW 16:30:43 50° SSE 16:38:37 10° E daylight
02 Aug - 18:11:49 10° WSW 18:19:54 62° S 18:27:45 10° ESE daylight
02 Aug - 20:01:11 10° W 20:09:01 49° SSW 20:16:04 10° ESE daylight
02 Aug - 21:51:37 10° WSW 21:57:27 23° SSW 22:02:39 10° SSE daylight
03 Aug - 14:24:50 10° SSW 14:30:43 28° SSE 14:37:15 10° E daylight
03 Aug - 16:11:57 10° WSW 16:19:21 53° SSE 16:27:19 10° E daylight
03 Aug - 18:00:32 10° W 18:08:32 62° S 18:16:29 10° ESE daylight
03 Aug - 19:49:52 10° W 19:57:38 46° SSW 20:04:48 10° SE daylight
03 Aug - 21:40:28 10° WSW 21:46:04 21° SSW 21:51:10 10° SSE daylight
04 Aug - 14:13:27 10° SSW 14:19:20 30° SSE 14:26:00 10° E daylight
04 Aug - 16:00:42 10° WSW 16:08:00 55° S 16:16:00 10° E daylight
04 Aug - 17:49:16 10° W 17:57:11 61° S 18:05:12 10° ESE daylight
04 Aug - 19:38:36 10° W 19:46:16 43° SSW 19:53:29 10° SE daylight
04 Aug - 21:29:25 10° WSW 21:34:41 19° SSW 21:39:34 10° S daylight
05 Aug - 12:19:38 10° SSE 12:20:10 10° SE 12:20:43 10° SE visible
05 Aug - 14:02:10 10° SW 14:07:59 33° SSE 14:14:43 10° E daylight
05 Aug - 15:49:30 10° WSW 15:56:39 57° S 16:04:39 10° E daylight
05 Aug - 17:38:03 10° W 17:45:49 60° S 17:53:53 10° ESE daylight
05 Aug - 19:27:20 10° W 19:34:52 40° SSW 19:42:06 10° SE daylight
05 Aug - 21:18:27 10° WSW 21:23:17 17° SSW 21:27:50 10° S daylight
06 Aug - 12:06:56 10° SSE 12:08:51 11° SE 12:10:54 10° SE visible
06 Aug - 13:50:55 10° SW 13:56:39 35° SSE 14:03:25 10° E daylight
06 Aug - 15:38:21 10° WSW 15:45:19 58° S 15:53:17 10° E daylight
06 Aug - 17:26:51 10° W 17:34:28 58° S 17:42:32 10° ESE daylight
06 Aug - 19:16:08 10° W 19:23:28 37° SSW 19:30:40 10° SE daylight
06 Aug - 21:07:39 10° WSW 21:11:52 15° SSW 21:15:55 10° S daylight
